Location: São Paulo
(23.5507°S, 46.6334°W)
Time: 17:23:37
(UTC-03:00)

Tiros 1 - Pass Details

Date: 12 February 2026
Orbit: 618 x 649 km, 48.4° (Epoch: 8 March)

Event Time Altitude Azimuth Distance (km) Brightness Sun altitude
Rises 04:29:42 0° 205° (SSW) 2,981 10.6 -18.7°
Reaches altitude 10° 04:33:10 10° 179° (S) 2,063 10.0 -18.0°
Maximum altitude 04:35:39 14° 147° (SSE) 1,803 10.2 -17.5°
Drops below altitude 10° 04:38:07 10° 116° (ESE) 2,049 11.1 -16.9°
Sets 04:41:32 0° 90° (E) 2,947 11.8 -16.2°
